#datetime,building,power
2023-07-12T00:00:00,och,12.00
2023-07-12T00:01:00,och,5.41
2023-07-12T00:02:00,och,6.01
2023-07-12T00:03:00,och,5.39
2023-07-12T00:05:00,och,12.01
2023-07-12T00:07:00,och,11.40
2023-07-12T00:08:00,och,5.39
2023-07-12T00:10:00,och,12.01
2023-07-12T00:12:00,och,12.60
2023-07-12T00:13:00,och,5.99
2023-07-12T00:15:00,och,11.41
2023-07-12T00:17:00,och,13.20
2023-07-12T00:18:00,och,7.19
2023-07-12T00:20:00,och,11.40
2023-07-12T00:21:00,och,5.41
2023-07-12T00:23:00,och,12.00
2023-07-12T00:24:00,och,5.41
2023-07-12T00:26:00,och,11.40
2023-07-12T00:27:00,och,6.01
2023-07-12T00:29:00,och,13.20
2023-07-12T00:31:00,och,11.40
2023-07-12T00:33:00,och,11.40
2023-07-12T00:35:00,och,13.21
2023-07-12T00:37:00,och,12.60
2023-07-12T00:39:00,och,11.40
2023-07-12T00:41:00,och,12.00
2023-07-12T00:43:00,och,12.60
2023-07-12T00:44:00,och,6.01
2023-07-12T00:45:00,och,5.41
2023-07-12T00:47:00,och,12.00
2023-07-12T00:48:00,och,5.39
2023-07-12T00:49:00,och,6.01
2023-07-12T00:50:00,och,5.41
2023-07-12T00:52:00,och,12.00
2023-07-12T00:53:00,och,5.39
2023-07-12T00:55:00,och,11.41
2023-07-12T00:57:00,och,12.00
2023-07-12T00:58:00,och,5.41
2023-07-12T00:59:00,och,5.99
2023-07-12T01:00:00,och,5.41
2023-07-12T01:02:00,och,12.00
2023-07-12T01:04:00,och,11.40
2023-07-12T01:06:00,och,11.40
2023-07-12T01:07:00,och,6.01
2023-07-12T01:09:00,och,12.60
2023-07-12T01:10:00,och,6.01
2023-07-12T01:11:00,och,5.39
2023-07-12T01:12:00,och,6.01
2023-07-12T01:14:00,och,11.40
2023-07-12T01:15:00,och,6.01
2023-07-12T01:17:00,och,11.40
2023-07-12T01:18:00,och,6.01
2023-07-12T01:20:00,och,11.40
2023-07-12T01:21:00,och,5.41
2023-07-12T01:22:00,och,5.99
2023-07-12T01:24:00,och,11.40
2023-07-12T01:25:00,och,6.01
2023-07-12T01:27:00,och,11.40
2023-07-12T01:28:00,och,4.20
2023-07-12T01:29:00,och,6.01
2023-07-12T01:31:00,och,11.40
2023-07-12T01:33:00,och,11.40
2023-07-12T01:34:00,och,7.21
2023-07-12T01:36:00,och,11.40
2023-07-12T01:37:00,och,5.99
2023-07-12T01:38:00,och,6.01
2023-07-12T01:40:00,och,11.40
2023-07-12T01:42:00,och,11.41
2023-07-12T01:44:00,och,13.20
2023-07-12T01:45:00,och,5.39
2023-07-12T01:47:00,och,13.20
2023-07-12T01:48:00,och,5.41
2023-07-12T01:50:00,och,12.00
2023-07-12T01:52:00,och,11.40
2023-07-12T01:54:00,och,24.61
2023-07-12T01:56:00,och,25.80
2023-07-12T01:58:00,och,11.40
2023-07-12T02:00:00,och,11.41
2023-07-12T02:02:00,och,11.40
2023-07-12T02:03:00,och,5.99
2023-07-12T02:05:00,och,11.41
2023-07-12T02:07:00,och,11.40
2023-07-12T02:08:00,och,6.01
2023-07-12T02:10:00,och,11.40
2023-07-12T02:12:00,och,13.20
2023-07-12T02:14:00,och,12.60
2023-07-12T02:15:00,och,6.01
2023-07-12T02:17:00,och,11.40
2023-07-12T02:18:00,och,5.99
2023-07-12T02:19:00,och,5.41
2023-07-12T02:21:00,och,12.00
2023-07-12T02:22:00,och,5.41
2023-07-12T02:24:00,och,10.20
2023-07-12T02:26:00,och,10.21
2023-07-12T02:28:00,och,11.40
2023-07-12T02:30:00,och,11.40
2023-07-12T02:31:00,och,6.01
2023-07-12T02:33:00,och,11.40
2023-07-12T02:35:00,och,11.40
2023-07-12T02:37:00,och,11.40
2023-07-12T02:39:00,och,12.01
2023-07-12T02:40:00,och,5.39
2023-07-12T02:42:00,och,13.20
2023-07-12T02:44:00,och,11.41
2023-07-12T02:46:00,och,11.40
2023-07-12T02:47:00,och,5.99
2023-07-12T02:48:00,och,5.41
2023-07-12T02:49:00,och,6.01
2023-07-12T02:51:00,och,11.40
2023-07-12T02:53:00,och,11.40
2023-07-12T02:55:00,och,13.20
2023-07-12T02:56:00,och,6.01
2023-07-12T02:58:00,och,11.40
2023-07-12T03:00:00,och,11.40
2023-07-12T03:02:00,och,11.41
2023-07-12T03:03:00,och,5.99
2023-07-12T03:04:00,och,5.41
2023-07-12T03:06:00,och,12.00
2023-07-12T03:07:00,och,5.41
2023-07-12T03:08:00,och,5.99
2023-07-12T03:10:00,och,11.41
2023-07-12T03:11:00,och,5.99
2023-07-12T03:13:00,och,12.60
2023-07-12T03:15:00,och,11.41
2023-07-12T03:17:00,och,12.00
2023-07-12T03:18:00,och,5.39
2023-07-12T03:19:00,och,6.01
2023-07-12T03:21:00,och,11.40
2023-07-12T03:22:00,och,6.01
2023-07-12T03:24:00,och,12.60
2023-07-12T03:26:00,och,10.20
2023-07-12T03:27:00,och,6.01
2023-07-12T03:29:00,och,11.40
2023-07-12T03:30:00,och,5.41
2023-07-12T03:31:00,och,5.99
2023-07-12T03:33:00,och,10.21
2023-07-12T03:35:00,och,11.40
2023-07-12T03:36:00,och,6.01
2023-07-12T03:37:00,och,4.19
2023-07-12T03:39:00,och,11.40
2023-07-12T03:41:00,och,11.41
2023-07-12T03:42:00,och,5.99
2023-07-12T03:43:00,och,5.41
2023-07-12T03:45:00,och,12.00
2023-07-12T03:47:00,och,12.60
2023-07-12T03:49:00,och,10.21
2023-07-12T03:50:00,och,5.99
2023-07-12T03:52:00,och,11.40
2023-07-12T03:53:00,och,4.20
2023-07-12T03:55:00,och,11.40
2023-07-12T03:56:00,och,4.20
2023-07-12T03:58:00,och,12.00
2023-07-12T03:59:00,och,4.20
2023-07-12T04:01:00,och,11.40
2023-07-12T04:03:00,och,10.21
2023-07-12T04:05:00,och,14.40
2023-07-12T04:07:00,och,14.40
2023-07-12T04:08:00,och,7.19
2023-07-12T04:09:00,och,7.21
2023-07-12T04:11:00,och,14.40
2023-07-12T04:13:00,och,14.40
2023-07-12T04:14:00,och,7.19
2023-07-12T04:16:00,och,14.40
2023-07-12T04:18:00,och,14.40
2023-07-12T04:19:00,och,7.21
2023-07-12T04:21:00,och,14.40
2023-07-12T04:23:00,och,12.60
2023-07-12T04:25:00,och,14.40
2023-07-12T04:27:00,och,14.40
2023-07-12T04:29:00,och,16.20
2023-07-12T04:31:00,och,14.40
2023-07-12T04:32:00,och,8.41
2023-07-12T04:33:00,och,5.99
2023-07-12T04:34:00,och,11.40
2023-07-12T04:36:00,och,14.41
2023-07-12T04:38:00,och,17.39
2023-07-12T04:40:00,och,15.60
2023-07-12T04:42:00,och,14.40
2023-07-12T04:43:00,och,9.01
2023-07-12T04:44:00,och,7.19
2023-07-12T04:46:00,och,14.40
2023-07-12T04:47:00,och,7.21
2023-07-12T04:48:00,och,7.19
2023-07-12T04:50:00,och,14.40
2023-07-12T04:51:00,och,7.21
2023-07-12T04:53:00,och,14.40
2023-07-12T04:55:00,och,16.80
2023-07-12T04:57:00,och,14.40
2023-07-12T04:59:00,och,14.40
2023-07-12T05:01:00,och,14.40
2023-07-12T05:03:00,och,14.40
2023-07-12T05:05:00,och,14.40
2023-07-12T05:07:00,och,14.40
2023-07-12T05:09:00,och,14.40
2023-07-12T05:11:00,och,16.20
2023-07-12T05:13:00,och,14.40
2023-07-12T05:15:00,och,14.40
2023-07-12T05:17:00,och,15.60
2023-07-12T05:18:00,och,8.99
2023-07-12T05:20:00,och,15.60
2023-07-12T05:21:00,och,8.41
2023-07-12T05:23:00,och,14.40
2023-07-12T05:25:00,och,14.40
2023-07-12T05:27:00,och,16.20
2023-07-12T05:29:00,och,14.40
2023-07-12T05:31:00,och,14.40
2023-07-12T05:32:00,och,7.19
2023-07-12T05:34:00,och,12.61
2023-07-12T05:36:00,och,14.40
2023-07-12T05:38:00,och,14.40
2023-07-12T05:40:00,och,14.40
2023-07-12T05:41:00,och,7.19
2023-07-12T05:43:00,och,14.40
2023-07-12T05:45:00,och,14.40
2023-07-12T05:47:00,och,16.20
2023-07-12T05:48:00,och,11.41
2023-07-12T05:49:00,och,7.19
2023-07-12T05:50:00,och,8.39
2023-07-12T05:52:00,och,14.41
2023-07-12T05:53:00,och,7.19
2023-07-12T05:55:00,och,16.20
2023-07-12T05:57:00,och,17.40
2023-07-12T05:58:00,och,9.59
2023-07-12T05:59:00,och,7.21
2023-07-12T06:01:00,och,17.40
2023-07-12T06:02:00,och,8.99
2023-07-12T06:04:00,och,15.60
2023-07-12T06:06:00,och,15.60
2023-07-12T06:07:00,och,7.19
2023-07-12T06:09:00,och,14.40
2023-07-12T06:10:00,och,7.21
2023-07-12T06:12:00,och,14.40
2023-07-12T06:14:00,och,13.20
2023-07-12T06:16:00,och,14.40
2023-07-12T06:18:00,och,13.20
2023-07-12T06:20:00,och,14.40
2023-07-12T06:21:00,och,7.21
2023-07-12T06:22:00,och,7.19
2023-07-12T06:24:00,och,12.60
2023-07-12T06:26:00,och,14.41
2023-07-12T06:28:00,och,14.40
2023-07-12T06:30:00,och,13.20
2023-07-12T06:31:00,och,7.19
2023-07-12T06:33:00,och,12.60
2023-07-12T06:35:00,och,14.40
2023-07-12T06:37:00,och,13.21
2023-07-12T06:38:00,och,7.19
2023-07-12T06:40:00,och,14.40
2023-07-12T06:42:00,och,13.20
2023-07-12T06:44:00,och,14.40
2023-07-12T06:45:00,och,7.21
2023-07-12T06:47:00,och,12.60
2023-07-12T06:48:00,och,7.19
2023-07-12T06:50:00,och,14.40
2023-07-12T06:51:00,och,7.21
2023-07-12T06:53:00,och,14.40
2023-07-12T06:55:00,och,14.40
2023-07-12T06:56:00,och,7.21
2023-07-12T06:58:00,och,14.40
2023-07-12T06:59:00,och,7.19
2023-07-12T07:01:00,och,14.40
2023-07-12T07:02:00,och,6.01
2023-07-12T07:04:00,och,14.40
2023-07-12T07:05:00,och,8.39
2023-07-12T07:07:00,och,20.41
2023-07-12T07:08:00,och,8.39
2023-07-12T07:09:00,och,10.21
2023-07-12T07:11:00,och,20.39
2023-07-12T07:13:00,och,19.80
2023-07-12T07:14:00,och,10.20
2023-07-12T07:15:00,och,10.21
2023-07-12T07:17:00,och,21.59
2023-07-12T07:19:00,och,19.80
2023-07-12T07:20:00,och,10.20
2023-07-12T07:21:00,och,10.21
2023-07-12T07:23:00,och,20.39
2023-07-12T07:24:00,och,9.61
2023-07-12T07:26:00,och,20.39
2023-07-12T07:28:00,och,20.41
2023-07-12T07:29:00,och,11.40
2023-07-12T07:30:00,och,10.20
2023-07-12T07:32:00,och,19.80
2023-07-12T07:34:00,och,20.41
2023-07-12T07:36:00,och,19.79
2023-07-12T07:37:00,och,10.21
2023-07-12T07:39:00,och,20.39
2023-07-12T07:41:00,och,19.80
2023-07-12T07:43:00,och,21.61
2023-07-12T07:45:00,och,20.39
2023-07-12T07:47:00,och,21.61
2023-07-12T07:48:00,och,10.20
2023-07-12T07:50:00,och,21.61
2023-07-12T07:52:00,och,31.80
2023-07-12T07:54:00,och,37.19
2023-07-12T07:55:00,och,11.40
2023-07-12T07:57:00,och,21.61
2023-07-12T07:58:00,och,10.20
2023-07-12T08:00:00,och,27.60
2023-07-12T08:01:00,och,11.41
2023-07-12T08:03:00,och,22.79
2023-07-12T08:05:00,och,23.39
2023-07-12T08:06:00,och,11.41
2023-07-12T08:07:00,och,10.20
2023-07-12T08:09:00,och,22.81
2023-07-12T08:11:00,och,22.79
2023-07-12T08:12:00,och,12.00
2023-07-12T08:14:00,och,24.01
2023-07-12T08:15:00,och,13.20
2023-07-12T08:16:00,och,11.40
2023-07-12T08:18:00,och,24.59
2023-07-12T08:20:00,och,22.81
2023-07-12T08:22:00,och,24.59
2023-07-12T08:23:00,och,11.40
2023-07-12T08:25:00,och,24.61
2023-07-12T08:26:00,och,11.40
2023-07-12T08:27:00,och,12.00
2023-07-12T08:29:00,och,24.01
2023-07-12T08:30:00,och,13.20
2023-07-12T08:32:00,och,22.79
2023-07-12T08:34:00,och,23.41
2023-07-12T08:35:00,och,12.60
2023-07-12T08:37:00,och,23.39
2023-07-12T08:39:00,och,24.61
2023-07-12T08:41:00,och,23.99
2023-07-12T08:42:00,och,13.20
2023-07-12T08:44:00,och,24.59
2023-07-12T08:45:00,och,12.61
2023-07-12T08:47:00,och,24.59
2023-07-12T08:49:00,och,25.80
2023-07-12T08:50:00,och,16.20
2023-07-12T08:52:00,och,27.00
2023-07-12T08:54:00,och,27.61
2023-07-12T08:56:00,och,27.60
2023-07-12T08:57:00,och,12.60
2023-07-12T08:58:00,och,13.20
2023-07-12T08:59:00,och,14.40
2023-07-12T09:01:00,och,25.80
2023-07-12T09:03:00,och,27.60
2023-07-12T09:05:00,och,25.81
2023-07-12T09:07:00,och,27.00
2023-07-12T09:09:00,och,30.60
2023-07-12T09:11:00,och,40.20
2023-07-12T09:13:00,och,56.40
2023-07-12T09:15:00,och,54.61
2023-07-12T09:17:00,och,53.39
2023-07-12T09:19:00,och,54.61
2023-07-12T09:21:00,och,53.39
2023-07-12T09:22:00,och,27.00
2023-07-12T09:23:00,och,30.60
2023-07-12T09:25:00,och,51.61
2023-07-12T09:26:00,och,25.80
2023-07-12T09:28:00,och,53.41
2023-07-12T09:29:00,och,25.80
2023-07-12T09:31:00,och,53.39
2023-07-12T09:32:00,och,25.81
2023-07-12T09:34:00,och,52.19
2023-07-12T09:35:00,och,25.80
2023-07-12T09:37:00,och,57.60
2023-07-12T09:38:00,och,27.01
2023-07-12T09:40:00,och,53.39
2023-07-12T09:42:00,och,52.21
2023-07-12T09:43:00,och,27.00
2023-07-12T09:44:00,och,25.80
2023-07-12T09:46:00,och,52.21
2023-07-12T09:47:00,och,25.80
2023-07-12T09:49:00,och,53.39
2023-07-12T09:50:00,och,27.01
2023-07-12T09:51:00,och,26.40
2023-07-12T09:52:00,och,27.00
2023-07-12T09:54:00,och,53.39
2023-07-12T09:55:00,och,25.81
2023-07-12T09:57:00,och,53.39
2023-07-12T09:58:00,och,25.80
2023-07-12T09:59:00,och,25.81
2023-07-12T10:01:00,och,56.40
2023-07-12T10:02:00,och,27.60
2023-07-12T10:03:00,och,33.00
2023-07-12T10:05:00,och,66.01
2023-07-12T10:06:00,och,30.59
2023-07-12T10:07:00,och,24.01
2023-07-12T10:09:00,och,50.41
2023-07-12T10:11:00,och,49.19
2023-07-12T10:12:00,och,24.61
2023-07-12T10:13:00,och,24.59
2023-07-12T10:15:00,och,48.60
2023-07-12T10:16:00,och,28.80
2023-07-12T10:18:00,och,50.39
2023-07-12T10:20:00,och,50.41
2023-07-12T10:22:00,och,49.20
2023-07-12T10:24:00,och,50.39
2023-07-12T10:26:00,och,50.41
2023-07-12T10:27:00,och,24.59
2023-07-12T10:29:00,och,50.41
2023-07-12T10:30:00,och,23.99
2023-07-12T10:32:00,och,50.41
2023-07-12T10:34:00,och,50.41
2023-07-12T10:35:00,och,24.59
2023-07-12T10:37:00,och,49.20
2023-07-12T10:39:00,och,53.39
2023-07-12T10:40:00,och,24.01
2023-07-12T10:41:00,och,24.59
2023-07-12T10:42:00,och,24.59
2023-07-12T10:43:00,och,25.81
2023-07-12T10:45:00,och,49.19
2023-07-12T10:46:00,och,25.81
2023-07-12T10:48:00,och,50.39
2023-07-12T10:50:00,och,51.61
2023-07-12T10:52:00,och,50.41
2023-07-12T10:53:00,och,24.59
2023-07-12T10:55:00,och,47.40
2023-07-12T10:57:00,och,48.00
2023-07-12T10:59:00,och,50.39
2023-07-12T11:00:00,och,24.01
2023-07-12T11:01:00,och,24.59
2023-07-12T11:03:00,och,57.60
2023-07-12T11:04:00,och,28.80
2023-07-12T11:06:00,och,50.41
2023-07-12T11:07:00,och,25.80
2023-07-12T11:09:00,och,55.20
2023-07-12T11:10:00,och,24.01
2023-07-12T11:12:00,och,49.20
2023-07-12T11:14:00,och,50.39
2023-07-12T11:16:00,och,49.20
2023-07-12T11:18:00,och,50.41
2023-07-12T11:20:00,och,48.59
2023-07-12T11:21:00,och,25.81
2023-07-12T11:22:00,och,24.59
2023-07-12T11:24:00,och,50.41
2023-07-12T11:25:00,och,24.59
2023-07-12T11:27:00,och,53.39
2023-07-12T11:28:00,och,27.01
2023-07-12T11:30:00,och,50.39
2023-07-12T11:31:00,och,26.40
2023-07-12T11:33:00,och,48.60
2023-07-12T11:34:00,och,25.80
2023-07-12T11:36:00,och,49.20
2023-07-12T11:38:00,och,49.20
2023-07-12T11:40:00,och,50.41
2023-07-12T11:42:00,och,50.39
2023-07-12T11:44:00,och,48.60
2023-07-12T11:45:00,och,24.59
2023-07-12T11:47:00,och,67.81
2023-07-12T11:49:00,och,61.80
2023-07-12T11:50:00,och,28.80
2023-07-12T11:52:00,och,49.19
2023-07-12T11:53:00,och,25.81
2023-07-12T11:54:00,och,24.59
2023-07-12T11:55:00,och,25.80
2023-07-12T11:57:00,och,50.41
2023-07-12T11:59:00,och,50.41
2023-07-12T12:00:00,och,24.59
2023-07-12T12:02:00,och,50.41
2023-07-12T12:04:00,och,48.59
2023-07-12T12:06:00,och,50.41
2023-07-12T12:08:00,och,49.20
2023-07-12T12:09:00,och,22.79
2023-07-12T12:11:00,och,49.20
2023-07-12T12:13:00,och,47.40
2023-07-12T12:15:00,och,49.20
2023-07-12T12:17:00,och,48.59
2023-07-12T12:18:00,och,24.61
2023-07-12T12:20:00,och,49.19
2023-07-12T12:22:00,och,48.60
2023-07-12T12:24:00,och,47.40
2023-07-12T12:26:00,och,48.00
2023-07-12T12:28:00,och,47.40
2023-07-12T12:30:00,och,47.39
2023-07-12T12:31:00,och,22.81
2023-07-12T12:33:00,och,48.00
2023-07-12T12:35:00,och,48.60
2023-07-12T12:37:00,och,50.39
2023-07-12T12:39:00,och,47.40
2023-07-12T12:41:00,och,46.20
2023-07-12T12:42:00,och,24.59
2023-07-12T12:43:00,och,22.81
2023-07-12T12:45:00,och,48.00
2023-07-12T12:46:00,och,22.79
2023-07-12T12:48:00,och,47.40
2023-07-12T12:49:00,och,23.39
2023-07-12T12:51:00,och,47.40
2023-07-12T12:53:00,och,46.20
2023-07-12T12:54:00,och,22.81
2023-07-12T12:56:00,och,46.19
2023-07-12T12:58:00,och,47.40
2023-07-12T12:59:00,och,22.81
2023-07-12T13:01:00,och,46.20
2023-07-12T13:03:00,och,47.40
2023-07-12T13:05:00,och,46.19
2023-07-12T13:07:00,och,47.40
2023-07-12T13:09:00,och,46.20
2023-07-12T13:10:00,och,21.61
2023-07-12T13:11:00,och,17.40
2023-07-12T13:13:00,och,32.99
2023-07-12T13:15:00,och,33.00
2023-07-12T13:17:00,och,33.60
2023-07-12T13:18:00,och,15.60
2023-07-12T13:20:00,och,33.00
2023-07-12T13:22:00,och,33.00
2023-07-12T13:23:00,och,16.19
2023-07-12T13:25:00,och,33.00
2023-07-12T13:26:00,och,17.40
2023-07-12T13:27:00,och,15.60
2023-07-12T13:29:00,och,33.00
2023-07-12T13:31:00,och,33.60
2023-07-12T13:32:00,och,15.60
2023-07-12T13:33:00,och,15.60
2023-07-12T13:34:00,och,23.39
2023-07-12T13:36:00,och,31.80
2023-07-12T13:38:00,och,33.00
2023-07-12T13:40:00,och,32.99
2023-07-12T13:41:00,och,15.60
2023-07-12T13:42:00,och,17.40
2023-07-12T13:44:00,och,33.00
2023-07-12T13:46:00,och,33.60
2023-07-12T13:47:00,och,16.80
2023-07-12T13:49:00,och,33.59
2023-07-12T13:50:00,och,16.80
2023-07-12T13:51:00,och,16.20
2023-07-12T13:53:00,och,34.20
2023-07-12T13:55:00,och,34.80
2023-07-12T13:57:00,och,34.79
2023-07-12T13:58:00,och,19.80
2023-07-12T14:00:00,och,47.40
2023-07-12T14:02:00,och,52.19
2023-07-12T14:04:00,och,40.21
2023-07-12T14:06:00,och,34.79
2023-07-12T14:08:00,och,34.20
2023-07-12T14:10:00,och,36.01
2023-07-12T14:11:00,och,17.40
2023-07-12T14:13:00,och,34.79
2023-07-12T14:15:00,och,34.20
2023-07-12T14:16:00,och,17.40
2023-07-12T14:18:00,och,33.00
2023-07-12T14:20:00,och,40.20
2023-07-12T14:21:00,och,16.20
2023-07-12T14:23:00,och,34.20
2023-07-12T14:25:00,och,34.79
2023-07-12T14:26:00,och,15.60
2023-07-12T14:28:00,och,34.80
2023-07-12T14:29:00,och,17.40
2023-07-12T14:30:00,och,17.40
2023-07-12T14:32:00,och,34.19
2023-07-12T14:33:00,och,16.20
2023-07-12T14:35:00,och,36.01
2023-07-12T14:37:00,och,35.99
2023-07-12T14:38:00,och,16.80
2023-07-12T14:40:00,och,37.81
2023-07-12T14:42:00,och,34.19
2023-07-12T14:44:00,och,36.01
2023-07-12T14:46:00,och,36.01
2023-07-12T14:47:00,och,16.20
2023-07-12T14:49:00,och,34.19
2023-07-12T14:50:00,och,17.40
2023-07-12T14:52:00,och,33.00
2023-07-12T14:54:00,och,33.60
2023-07-12T14:56:00,och,33.00
2023-07-12T14:57:00,och,15.59
2023-07-12T14:58:00,och,17.40
2023-07-12T14:59:00,och,15.60
2023-07-12T15:01:00,och,33.60
2023-07-12T15:03:00,och,33.00
2023-07-12T15:05:00,och,31.80
2023-07-12T15:07:00,och,34.19
2023-07-12T15:09:00,och,36.01
2023-07-12T15:11:00,och,33.00
2023-07-12T15:13:00,och,34.80
2023-07-12T15:15:00,och,32.99
2023-07-12T15:17:00,och,31.80
2023-07-12T15:18:00,och,15.60
2023-07-12T15:20:00,och,31.80
2023-07-12T15:22:00,och,31.80
2023-07-12T15:23:00,och,17.40
2023-07-12T15:24:00,och,17.40
2023-07-12T15:26:00,och,31.20
2023-07-12T15:27:00,och,17.39
2023-07-12T15:29:00,och,31.80
2023-07-12T15:31:00,och,33.00
2023-07-12T15:33:00,och,31.80
2023-07-12T15:34:00,och,17.40
2023-07-12T15:35:00,och,14.40
2023-07-12T15:37:00,och,27.00
2023-07-12T15:39:00,och,27.60
2023-07-12T15:40:00,och,13.20
2023-07-12T15:42:00,och,37.21
2023-07-12T15:44:00,och,43.20
2023-07-12T15:45:00,och,14.40
2023-07-12T15:47:00,och,25.80
2023-07-12T15:49:00,och,24.61
2023-07-12T15:51:00,och,25.80
2023-07-12T15:52:00,och,13.20
2023-07-12T15:53:00,och,12.60
2023-07-12T15:54:00,och,12.00
2023-07-12T15:56:00,och,24.01
2023-07-12T15:58:00,och,24.59
2023-07-12T16:00:00,och,25.80
2023-07-12T16:01:00,och,13.21
2023-07-12T16:02:00,och,11.40
2023-07-12T16:03:00,och,13.20
2023-07-12T16:04:00,och,12.60
2023-07-12T16:06:00,och,26.40
2023-07-12T16:07:00,och,11.41
2023-07-12T16:09:00,och,25.80
2023-07-12T16:11:00,och,24.59
2023-07-12T16:12:00,och,11.40
2023-07-12T16:13:00,och,13.21
2023-07-12T16:14:00,och,11.40
2023-07-12T16:16:00,och,22.79
2023-07-12T16:17:00,och,13.20
2023-07-12T16:19:00,och,22.81
2023-07-12T16:20:00,och,11.40
2023-07-12T16:22:00,och,23.41
2023-07-12T16:23:00,och,11.40
2023-07-12T16:25:00,och,22.79
2023-07-12T16:27:00,och,24.61
2023-07-12T16:28:00,och,11.40
2023-07-12T16:29:00,och,12.00
2023-07-12T16:31:00,och,23.99
2023-07-12T16:32:00,och,12.01
2023-07-12T16:34:00,och,22.79
2023-07-12T16:36:00,och,25.80
2023-07-12T16:37:00,och,11.41
2023-07-12T16:39:00,och,23.39
2023-07-12T16:41:00,och,24.59
2023-07-12T16:43:00,och,22.81
2023-07-12T16:45:00,och,24.59
2023-07-12T16:47:00,och,22.81
2023-07-12T16:48:00,och,11.40
2023-07-12T16:50:00,och,24.59
2023-07-12T16:52:00,och,27.61
2023-07-12T16:54:00,och,24.59
2023-07-12T16:55:00,och,11.40
2023-07-12T16:56:00,och,11.40
2023-07-12T16:58:00,och,22.81
2023-07-12T16:59:00,och,12.00
2023-07-12T17:01:00,och,23.99
2023-07-12T17:02:00,och,12.01
2023-07-12T17:03:00,och,11.40
2023-07-12T17:04:00,och,11.40
2023-07-12T17:06:00,och,22.81
2023-07-12T17:08:00,och,23.39
2023-07-12T17:10:00,och,22.81
2023-07-12T17:11:00,och,11.40
2023-07-12T17:13:00,och,23.39
2023-07-12T17:15:00,och,22.81
2023-07-12T17:17:00,och,24.59
2023-07-12T17:19:00,och,22.81
2023-07-12T17:21:00,och,21.59
2023-07-12T17:22:00,och,12.00
2023-07-12T17:24:00,och,22.81
2023-07-12T17:26:00,och,22.79
2023-07-12T17:28:00,och,23.41
2023-07-12T17:29:00,och,11.40
2023-07-12T17:30:00,och,11.40
2023-07-12T17:32:00,och,21.61
2023-07-12T17:34:00,och,21.59
2023-07-12T17:36:00,och,21.61
2023-07-12T17:37:00,och,11.40
2023-07-12T17:39:00,och,23.41
2023-07-12T17:40:00,och,10.20
2023-07-12T17:42:00,och,21.59
2023-07-12T17:44:00,och,22.81
2023-07-12T17:46:00,och,21.59
2023-07-12T17:48:00,och,21.61
2023-07-12T17:50:00,och,21.61
2023-07-12T17:51:00,och,11.40
2023-07-12T17:53:00,och,21.59
2023-07-12T17:54:00,och,11.41
2023-07-12T17:56:00,och,31.79
2023-07-12T17:57:00,och,20.41
2023-07-12T17:59:00,och,30.00
2023-07-12T18:01:00,och,21.61
2023-07-12T18:03:00,och,23.39
2023-07-12T18:04:00,och,11.40
2023-07-12T18:06:00,och,21.61
2023-07-12T18:07:00,och,10.20
2023-07-12T18:09:00,och,21.61
2023-07-12T18:11:00,och,22.79
2023-07-12T18:13:00,och,21.61
2023-07-12T18:14:00,och,11.40
2023-07-12T18:16:00,och,21.61
2023-07-12T18:18:00,och,21.59
2023-07-12T18:20:00,och,21.61
2023-07-12T18:21:00,och,11.40
2023-07-12T18:23:00,och,21.61
2023-07-12T18:24:00,och,10.20
2023-07-12T18:26:00,och,20.41
2023-07-12T18:28:00,och,19.79
2023-07-12T18:30:00,och,21.61
2023-07-12T18:32:00,och,20.39
2023-07-12T18:33:00,och,11.41
2023-07-12T18:34:00,och,10.20
2023-07-12T18:36:00,och,21.61
2023-07-12T18:38:00,och,20.39
2023-07-12T18:39:00,och,11.40
2023-07-12T18:41:00,och,19.80
2023-07-12T18:42:00,och,12.00
2023-07-12T18:44:00,och,19.80
2023-07-12T18:45:00,och,10.20
2023-07-12T18:46:00,och,10.21
2023-07-12T18:48:00,och,19.79
2023-07-12T18:50:00,och,14.40
2023-07-12T18:51:00,och,7.21
2023-07-12T18:53:00,och,14.40
2023-07-12T18:55:00,och,16.20
2023-07-12T18:57:00,och,14.40
2023-07-12T18:58:00,och,7.19
2023-07-12T19:00:00,och,15.60
2023-07-12T19:02:00,och,14.40
2023-07-12T19:03:00,och,7.21
2023-07-12T19:05:00,och,16.20
2023-07-12T19:07:00,och,14.40
2023-07-12T19:09:00,och,14.40
2023-07-12T19:11:00,och,15.60
2023-07-12T19:13:00,och,14.40
2023-07-12T19:15:00,och,15.60
2023-07-12T19:16:00,och,7.19
2023-07-12T19:18:00,och,14.40
2023-07-12T19:20:00,och,16.20
2023-07-12T19:22:00,och,14.40
2023-07-12T19:24:00,och,14.40
2023-07-12T19:25:00,och,7.21
2023-07-12T19:27:00,och,14.40
2023-07-12T19:28:00,och,7.19
2023-07-12T19:30:00,och,14.41
2023-07-12T19:32:00,och,14.40
2023-07-12T19:33:00,och,7.19
2023-07-12T19:35:00,och,14.40
2023-07-12T19:37:00,och,15.60
2023-07-12T19:39:00,och,14.40
2023-07-12T19:41:00,och,14.40
2023-07-12T19:42:00,och,9.01
2023-07-12T19:44:00,och,14.40
2023-07-12T19:46:00,och,22.79
2023-07-12T19:48:00,och,25.80
2023-07-12T19:49:00,och,7.21
2023-07-12T19:51:00,och,17.40
2023-07-12T19:52:00,och,7.19
2023-07-12T19:54:00,och,14.40
2023-07-12T19:55:00,och,7.21
2023-07-12T19:57:00,och,15.60
2023-07-12T19:58:00,och,7.19
2023-07-12T20:00:00,och,14.40
2023-07-12T20:01:00,och,7.21
2023-07-12T20:03:00,och,14.40
2023-07-12T20:05:00,och,16.20
2023-07-12T20:06:00,och,7.19
2023-07-12T20:08:00,och,14.40
2023-07-12T20:09:00,och,7.21
2023-07-12T20:11:00,och,15.60
2023-07-12T20:12:00,och,7.19
2023-07-12T20:13:00,och,7.21
2023-07-12T20:15:00,och,14.40
2023-07-12T20:16:00,och,8.99
2023-07-12T20:18:00,och,14.40
2023-07-12T20:20:00,och,15.60
2023-07-12T20:21:00,och,7.21
2023-07-12T20:23:00,och,14.40
2023-07-12T20:25:00,och,15.60
2023-07-12T20:26:00,och,7.19
2023-07-12T20:28:00,och,16.20
2023-07-12T20:29:00,och,7.21
2023-07-12T20:30:00,och,7.19
2023-07-12T20:32:00,och,14.40
2023-07-12T20:34:00,och,14.40
2023-07-12T20:36:00,och,15.60
2023-07-12T20:37:00,och,7.21
2023-07-12T20:38:00,och,7.19
2023-07-12T20:40:00,och,14.40
2023-07-12T20:42:00,och,14.40
2023-07-12T20:44:00,och,16.20
2023-07-12T20:46:00,och,15.60
2023-07-12T20:48:00,och,14.40
2023-07-12T20:50:00,och,14.40
2023-07-12T20:51:00,och,8.41
2023-07-12T20:53:00,och,14.40
2023-07-12T20:55:00,och,14.40
2023-07-12T20:57:00,och,16.20
2023-07-12T20:59:00,och,14.40
2023-07-12T21:01:00,och,14.40
2023-07-12T21:02:00,och,7.19
2023-07-12T21:04:00,och,15.60
2023-07-12T21:05:00,och,7.21
2023-07-12T21:07:00,och,16.20
2023-07-12T21:08:00,och,7.19
2023-07-12T21:10:00,och,14.40
2023-07-12T21:11:00,och,7.21
2023-07-12T21:12:00,och,8.39
2023-07-12T21:13:00,och,7.21
2023-07-12T21:15:00,och,14.40
2023-07-12T21:16:00,och,8.39
2023-07-12T21:18:00,och,14.40
2023-07-12T21:19:00,och,9.01
2023-07-12T21:21:00,och,14.40
2023-07-12T21:23:00,och,14.40
2023-07-12T21:24:00,och,8.39
2023-07-12T21:25:00,och,7.21
2023-07-12T21:27:00,och,14.40
2023-07-12T21:28:00,och,7.19
2023-07-12T21:30:00,och,16.20
2023-07-12T21:32:00,och,14.40
2023-07-12T21:33:00,och,7.21
2023-07-12T21:35:00,och,14.40
2023-07-12T21:37:00,och,14.40